When you browse on this site, cookies collect data to enhance your experience and personalize the content and advertising you see.
Visit our Privacy Policy to learn more. By continuing to use the site, you agree to this use of cookies and data.
  • In Hungary
  • List of Countries
  • For 7 days
  • Water Temperature
  • Satellite Maps
  • Weather Map
  • News
  • Weather Widgets
  • user-avatar
    Login

    Hourly Weather Mongu

    Today, 19 April, Friday

    Time Temperature Precipitation Wind Pressure Humidity
    00:00 +21°C° 0 mm 2 mps 675 mmHg 86%
    01:00 +21°C° 0 mm 2 mps 675 mmHg 86%
    02:00 +21°C° 0 mm 2 mps 675 mmHg 87%
    03:00 +20°C° 0 mm 2 mps 675 mmHg 88%
    04:00 +20°C° 0 mm 2 mps 675 mmHg 88%
    05:00 +20°C° 0 mm 2 mps 675 mmHg 88%
    06:00 +20°C° 0 mm 2 mps 675 mmHg 84%
    07:00 +21°C° 0 mm 3 mps 676 mmHg 80%
    08:00 +22°C° 0 mm 3 mps 677 mmHg 75%
    09:00 +26°C° 0 mm 3 mps 677 mmHg 66%
    10:00 +28°C° 0 mm 3 mps 677 mmHg 58%
    11:00 +30°C° 0 mm 3 mps 677 mmHg 49%
    12:00 +31°C° 0 mm 3 mps 677 mmHg 47%
    13:00 +31°C° 0 mm 3 mps 676 mmHg 45%
    14:00 +32°C° 0 mm 2 mps 676 mmHg 43%
    15:00 +31°C° 0 mm 2 mps 675 mmHg 46%
    16:00 +31°C° 0 mm 2 mps 675 mmHg 48%
    17:00 +30°C° 0 mm 1 mps 674 mmHg 51%
    18:00 +29°C° 0 mm 1 mps 674 mmHg 54%
    19:00 +28°C° 0 mm 2 mps 675 mmHg 57%
    20:00 +27°C° 0 mm 2 mps 675 mmHg 59%
    21:00 +26°C° 0 mm 2 mps 675 mmHg 63%
    22:00 +25°C° 0 mm 2 mps 676 mmHg 67%
    23:00 +24°C° 0 mm 2 mps 676 mmHg 71%

    Tomorrow, 20 April, Saturday

    Time Temperature Precipitation Wind Pressure Humidity
    00:00 +24°C° 0.2 mm 2 mps 676 mmHg 77%
    01:00 +23°C° 0.2 mm 2 mps 675 mmHg 82%
    02:00 +21°C° 0.2 mm 2 mps 675 mmHg 87%
    03:00 +20°C° 0.3 mm 2 mps 675 mmHg 88%
    04:00 +20°C° 0.3 mm 2 mps 675 mmHg 90%
    05:00 +21°C° 0.3 mm 1 mps 674 mmHg 92%
    06:00 +20°C° 0 mm 2 mps 675 mmHg 89%
    07:00 +21°C° 0 mm 2 mps 675 mmHg 86%
    08:00 +21°C° 0 mm 2 mps 676 mmHg 83%
    09:00 +25°C° 0 mm 3 mps 676 mmHg 72%
    10:00 +27°C° 0 mm 3 mps 677 mmHg 62%
    11:00 +30°C° 0 mm 3 mps 677 mmHg 51%
    12:00 +31°C° 0 mm 3 mps 676 mmHg 46%
    13:00 +33°C° 0 mm 3 mps 676 mmHg 42%
    14:00 +34°C° 0 mm 2 mps 675 mmHg 37%
    15:00 +32°C° 0 mm 2 mps 674 mmHg 41%
    16:00 +31°C° 0 mm 1 mps 674 mmHg 44%
    17:00 +30°C° 0 mm 1 mps 673 mmHg 48%
    18:00 +29°C° 0 mm 1 mps 674 mmHg 49%
    19:00 +29°C° 0 mm 1 mps 674 mmHg 50%
    20:00 +28°C° 0 mm 1 mps 674 mmHg 52%
    21:00 +27°C° 0.1 mm 2 mps 675 mmHg 58%
    22:00 +26°C° 0.1 mm 2 mps 675 mmHg 64%
    23:00 +25°C° 0.1 mm 2 mps 675 mmHg 69%

    Day after tomorrow, 21 April, Sunday

    Time Temperature Precipitation Wind Pressure Humidity
    00:00 +24°C° 0 mm 2 mps 674 mmHg 75%
    01:00 +23°C° 0 mm 2 mps 674 mmHg 81%
    02:00 +21°C° 0 mm 2 mps 674 mmHg 86%
    03:00 +21°C° 0.2 mm 1 mps 674 mmHg 89%
    04:00 +21°C° 0.2 mm 1 mps 673 mmHg 91%
    05:00 +20°C° 0.2 mm 1 mps 673 mmHg 94%
    06:00 +21°C° 0.1 mm 1 mps 674 mmHg 90%
    07:00 +21°C° 0.1 mm 2 mps 674 mmHg 86%
    08:00 +21°C° 0.1 mm 2 mps 675 mmHg 82%
    09:00 +25°C° 0 mm 3 mps 675 mmHg 70%
    10:00 +27°C° 0 mm 3 mps 676 mmHg 58%
    11:00 +30°C° 0 mm 3 mps 676 mmHg 47%
    12:00 +31°C° 0 mm 2 mps 676 mmHg 44%
    13:00 +32°C° 0 mm 2 mps 675 mmHg 41%
    14:00 +34°C° 0 mm 2 mps 674 mmHg 37%
    15:00 +32°C° 0 mm 1 mps 674 mmHg 39%
    16:00 +32°C° 0 mm 1 mps 673 mmHg 41%
    17:00 +31°C° 0 mm 1 mps 673 mmHg 42%
    18:00 +30°C° 0 mm 1 mps 673 mmHg 46%
    19:00 +28°C° 0 mm 1 mps 673 mmHg 49%
    20:00 +27°C° 0 mm 1 mps 673 mmHg 52%
    21:00 +26°C° 0 mm 1 mps 673 mmHg 54%
    22:00 +26°C° 0 mm 1 mps 674 mmHg 55%
    23:00 +26°C° 0 mm 1 mps 674 mmHg 56%

    22 April, Monday

    Time Temperature Precipitation Wind Pressure Humidity
    00:00 +25°C° 0 mm 2 mps 673 mmHg 60%
    01:00 +24°C° 0 mm 2 mps 673 mmHg 64%
    02:00 +23°C° 0 mm 2 mps 673 mmHg 68%
    03:00 +21°C° 0.3 mm 2 mps 673 mmHg 73%
    04:00 +21°C° 0.3 mm 2 mps 672 mmHg 78%
    05:00 +20°C° 0.3 mm 2 mps 672 mmHg 83%
    06:00 +21°C° 0.2 mm 2 mps 673 mmHg 82%
    07:00 +21°C° 0.2 mm 2 mps 674 mmHg 80%
    08:00 +22°C° 0.2 mm 3 mps 674 mmHg 79%
    09:00 +25°C° 0.2 mm 2 mps 675 mmHg 69%
    10:00 +28°C° 0.2 mm 2 mps 675 mmHg 59%
    11:00 +30°C° 0.2 mm 2 mps 676 mmHg 49%
    12:00 +31°C° 0 mm 2 mps 675 mmHg 44%
    13:00 +34°C° 0 mm 2 mps 674 mmHg 40%
    14:00 +34°C° 0 mm 1 mps 673 mmHg 35%
    15:00 +33°C° 0 mm 1 mps 673 mmHg 37%
    16:00 +32°C° 0 mm 1 mps 673 mmHg 39%
    17:00 +30°C° 0 mm 0 mps 672 mmHg 42%
    18:00 +28°C° 0 mm 0 mps 673 mmHg 45%
    19:00 +26°C° 0 mm 0 mps 673 mmHg 49%
    20:00 +24°C° 0 mm 0 mps 673 mmHg 53%
    21:00 +24°C° 0.1 mm 0 mps 673 mmHg 55%
    22:00 +25°C° 0.1 mm 1 mps 673 mmHg 58%
    23:00 +25°C° 0.1 mm 1 mps 673 mmHg 60%

    23 April, Tuesday

    Time Temperature Precipitation Wind Pressure Humidity
    00:00 +25°C° 0 mm 1 mps 673 mmHg 62%
    01:00 +24°C° 0 mm 1 mps 673 mmHg 63%
    02:00 +24°C° 0 mm 1 mps 673 mmHg 65%
    03:00 +24°C° 0 mm 1 mps 673 mmHg 67%
    04:00 +23°C° 0 mm 2 mps 673 mmHg 69%
    05:00 +21°C° 0 mm 2 mps 673 mmHg 72%
    06:00 +23°C° 0 mm 2 mps 674 mmHg 71%
    07:00 +23°C° 0 mm 2 mps 674 mmHg 70%
    08:00 +22°C° 0 mm 3 mps 675 mmHg 69%
    09:00 +26°C° 0 mm 3 mps 675 mmHg 61%
    10:00 +28°C° 0 mm 3 mps 676 mmHg 52%
    11:00 +31°C° 0 mm 3 mps 676 mmHg 43%
    12:00 +33°C° 0 mm 3 mps 675 mmHg 40%
    13:00 +32°C° 0 mm 2 mps 675 mmHg 38%
    14:00 +34°C° 0 mm 2 mps 674 mmHg 35%
    15:00 +34°C° 0 mm 2 mps 674 mmHg 36%
    16:00 +33°C° 0 mm 1 mps 674 mmHg 36%
    17:00 +32°C° 0 mm 1 mps 674 mmHg 37%
    18:00 +31°C° 0 mm 1 mps 674 mmHg 41%
    19:00 +29°C° 0 mm 1 mps 674 mmHg 45%
    20:00 +27°C° 0 mm 1 mps 674 mmHg 48%
    21:00 +27°C° 0 mm 1 mps 674 mmHg 51%
    22:00 +24°C° 0 mm 0 mps 674 mmHg 53%
    23:00 +24°C° 0 mm 0 mps 674 mmHg 56%

    24 April, Wednesday

    Time Temperature Precipitation Wind Pressure Humidity
    00:00 +25°C° 0 mm 1 mps 674 mmHg 59%
    01:00 +24°C° 0 mm 1 mps 674 mmHg 62%
    02:00 +24°C° 0 mm 1 mps 674 mmHg 65%
    03:00 +24°C° 0 mm 1 mps 674 mmHg 66%
    04:00 +23°C° 0 mm 1 mps 674 mmHg 68%
    05:00 +23°C° 0 mm 1 mps 674 mmHg 70%
    06:00 +23°C° 0 mm 1 mps 674 mmHg 68%
    07:00 +24°C° 0 mm 1 mps 675 mmHg 67%
    08:00 +24°C° 0 mm 2 mps 675 mmHg 65%
    09:00 +26°C° 0 mm 2 mps 676 mmHg 58%
    10:00 +28°C° 0 mm 2 mps 676 mmHg 50%
    11:00 +31°C° 0 mm 2 mps 676 mmHg 43%
    12:00 +32°C° 0 mm 2 mps 676 mmHg 39%
    13:00 +34°C° 0 mm 2 mps 675 mmHg 36%
    14:00 +35°C° 0 mm 2 mps 674 mmHg 32%
    15:00 +34°C° 0 mm 2 mps 674 mmHg 33%
    16:00 +34°C° 0 mm 2 mps 674 mmHg 34%
    17:00 +32°C° 0 mm 2 mps 673 mmHg 35%
    18:00 +30°C° 0 mm 1 mps 673 mmHg 38%
    19:00 +28°C° 0 mm 1 mps 674 mmHg 41%
    20:00 +27°C° 0 mm 1 mps 674 mmHg 44%
    21:00 +26°C° 0 mm 1 mps 674 mmHg 45%
    22:00 +26°C° 0 mm 1 mps 674 mmHg 47%
    23:00 +25°C° 0 mm 2 mps 674 mmHg 48%
    Show more